Regional Weather Roundup
Issued by NWS

Home | Current Version | Previous Version | Text Only | Print | Product List | Glossary On
Versions: 1 2 3 4 5 6 7 8 9 10 11 12 13 14 15 16 17 18 19 20 21 22 23 24 25 26 27 28 29 30 31 32 33 34 35 36 37 38 39 40 41 42 43 44 45 46 47 48 49 50
000
ASUS43 KOAX 130802
RWRNE

WEATHER ROUNDUP FOR NEBRASKA
NATIONAL WEATHER SERVICE OMAHA NE
200 AM CST SAT FEB 13 2016

NOTES: SATELLITE DATA IS BEING USED TO AUGMENT CLOUD COVER ABOVE
       12000 FEET.
       "FAIR" INDICATES FEW OR NO CLOUDS BELOW 12,000 FEET WITH NO
       SIGNIFICANT WEATHER AND/OR OBSTRUCTIONS TO VISIBILITY.

  * THESE STATIONS DO NOT REPORT WEATHER SUCH AS RAIN...SNOW OR FOG.

NEZ001>004-019>022-054>056-130900-
NEBRASKA PANHANDLE

CITY           SKY/WX    TMP DP  RH WIND       PRES   REMARKS
SCOTTSBLUFF    CLOUDY    33  30  88 SE12      30.19F WCI  24
ALLIANCE       CLOUDY    30  29  96 S16       30.20F FOG     WCI  19
CHADRON        CLOUDY    34  30  85 S8        30.18F WCI  27
SIDNEY         CLOUDY    29  29 100 S14       30.23F FOG     WCI  18
$$

NEZ057>060-069>072-079>082-130900-
SOUTHWEST NEBRASKA

CITY           SKY/WX    TMP DP  RH WIND       PRES   REMARKS
NORTH PLATTE   CLOUDY    23  19  85 SE10      30.38F WCI  12
IMPERIAL       CLOUDY    29  27  92 S18       30.33F WCI  16
MCCOOK         FOG       25  24  96 SE13      30.41F VSB 3/4 WCI  14
$$

NEZ005>010-023>029-035>040-094-130900-
NORTH CENTRAL NEBRASKA

CITY           SKY/WX    TMP DP  RH WIND       PRES   REMARKS
VALENTINE      CLOUDY    22  16  78 SE12      30.36F WCI  10
BROKEN BOW     CLOUDY    19  15  84 S13       30.43F WCI   6
ORD            CLOUDY    17  12  80 SE8       30.47F WCI   7
$$

NEZ041-046>049-061>064-073>077-083>087-130900-
SOUTH CENTRAL NEBRASKA

CITY           SKY/WX    TMP DP  RH WIND       PRES   REMARKS
GRAND ISLAND   CLOUDY    16   9  74 E8        30.53F WCI   5
HASTINGS       CLOUDY    18  10  71 E8        30.49F WCI   8
KEARNEY *      CLOUDY    19  14  79 SE12      30.47F WCI   7
$$

NEZ011>018-030>034-042>045-130900-
NORTHEAST NEBRASKA

CITY           SKY/WX    TMP DP  RH WIND       PRES   REMARKS
NORFOLK        CLOUDY    12   3  67 E7        30.54F WCI   1
COLUMBUS *     CLOUDY    12   0  57 E8        30.58F WCI   1
TEKAMAH        CLOUDY     7  -3  64 N10       30.63F WCI  -8
$$

NEZ050>053-065>068-078-088>093-130900-
SOUTHEAST NEBRASKA

CITY           SKY/WX    TMP DP  RH WIND       PRES   REMARKS
LINCOLN        CLOUDY    15   5  64 NE8       30.61F WCI   4
OMAHA EPPLEY   CLOUDY    11   0  61 N8        30.64F WCI  -1
FALLS CITY     CLOUDY    16   2  54 NE7       30.62F WCI   6
$$

NEZ044-045-051>053-067-130900-
OMAHA AREA

CITY           SKY/WX    TMP DP  RH WIND       PRES   REMARKS
OMAHA EPPLEY   CLOUDY    11   0  61 N8        30.64F WCI  -1
OFFUTT AFB     MOCLDY    12   1  60 NE9       30.63S WCI   0
$$



USA.gov is the U.S. government's official web portal to all federal, state and local government web resources and services.